{"data":{"norad_id":61726,"intl_designator":"2024-196V","name":"STARLINK-32478","alt_names":[],"object_type":"PAYLOAD","status":"ACTIVE","operator":null,"country":"US","launch_date":"2024-10-30","launch_site_code":"AFETR","launch_vehicle":null,"mission":null,"orbit_class":"UNKNOWN","rcs_meters":null,"size_class":null,"mass_kg":null,"dimensions":null,"purposes":["comms"],"wikipedia_slug":null,"has_3d_model":false,"image_url":null,"decayed_at":null,"tle_current":{"epoch":"2026-05-25T03:49:54.045120Z","epoch_age_seconds":68221,"freshness":"FRESH","line1":"1 61726U 24196V   26145.15965330  .00000526  00000+0  29885-4 0  9992","line2":"2 61726  53.1606 106.2019 0001336  84.1824 275.9329 15.30193240 88869","mean_motion":15.3019324,"eccentricity":0.0001336,"inclination_deg":53.1606,"raan_deg":106.2019,"arg_perigee_deg":84.1824,"mean_anomaly_deg":275.9329,"bstar":2.9885e-5,"rev_number":8886,"period_min":94.105761439647,"perigee_km":474.31964310205,"apogee_km":476.15086416822,"semimajor_km":6853.3722536351,"source":"CELESTRAK","updated_at":"2026-05-25T13:38:19.448234Z"}}}